Weather Roundup
Issued by NWS Springfield, MO

Home | Current Version | Previous Version | Text Only | Print | Product List | Glossary On
Versions: 1 2 3 4 5 6 7 8 9 10 11 12 13 14 15 16 17 18 19 20 21 22 23 24 25 26 27 28 29 30 31 32 33 34 35 36 37 38 39 40 41 42 43 44 45 46 47 48 49 50
000
NZUS99 KSGF 191007
HRRSGF

HOURLY WEATHER
NATIONAL WEATHER SERVICE SPRINGFIELD MO
500 AM CDT THU OCT 19 2017

......SGF CWA......

CITY           SKY/WX    TMP DP  RH WIND       PRES   REMARKS
SPRINGFIELD    CLEAR     50  46  86 SE8       30.14S
JOPLIN         CLEAR     54  49  83 S9        30.13S
WEST PLAINS    CLEAR     49  46  90 CALM      30.19R
ROLLA          CLEAR     54  48  80 S12       30.15S
OSAGE BEACH    CLEAR     50  47  89 S5        30.15R
BRANSON        CLEAR     46  46 100 CALM      30.17R

......SURROUNDING SGF CWA......

CITY           SKY/WX    TMP DP  RH WIND       PRES   REMARKS
CHANUTE        CLEAR     53  47  79 S9        30.10S
PARSONS        CLEAR     53  47  79 S3        30.12S
COFFEYVILLE    CLEAR     50  46  86 S6        30.11S
EMPORIA        CLEAR     51  46  83 S5        30.07S
GROVE OK       CLOUDY    46  46 100 CALM      30.15R
ROGERS AR      CLEAR     50  47  89 SE5       30.17R
SILOAM SPRINGS CLOUDY    47  45  93 E3        30.16R
HARRISON AR    CLOUDY    51  48  89 NW3       30.17R
NEAR YELLVILLE CLEAR     52  48  86 CALM      30.17R

......KANSAS AND MISSOURI......

CITY           SKY/WX    TMP DP  RH WIND       PRES   REMARKS
KANSAS CTY INT CLEAR     52  48  86 S7        30.07S
DOWNTOWN KC    CLEAR     53  50  89 N3        30.07S
COLUMBIA       CLEAR     53  46  77 S6        30.12R
SEDALIA        CLEAR     58  49  72 SW10      30.11F
ST JOSEPH      FOG       42  42 100 CALM      30.06R VSB 1/2
ST LOUIS       CLEAR     58  49  72 S3        30.14R
SPIRIT OF STL  CLEAR     48  47  96 CALM      30.13S
KIRKSVILLE     CLEAR     50  49  96 SW5       30.09R
WICHITA        CLEAR     49  47  93 S7        30.06S
TOPEKA         CLEAR     49  48  97 CALM      30.07R
OLATHE         CLEAR     52  48  86 S5        30.08S

......TENNESSEE......

CITY           SKY/WX    TMP DP  RH WIND       PRES   REMARKS
MEMPHIS        CLEAR     55  46  71 S5        30.21R
NASHVILLE      PTCLDY    48  43  82 CALM      30.26R

......ARKANSAS.......

CITY           SKY/WX    TMP DP  RH WIND       PRES   REMARKS
FAYETTEVILLE   CLOUDY    46  46 100 CALM      30.16R
FT SMITH       CLOUDY    54  52  93 NE3       30.15R
LITTLE ROCK    CLOUDY    49  49 100 CALM      30.19R

......OKLAHOMA.......

CITY           SKY/WX    TMP DP  RH WIND       PRES   REMARKS
TULSA          MOCLDY    56  49  77 SE8       30.10R
PONCA CITY     CLEAR     57  45  64 S8        30.08R
MCALESTER      CLEAR     60  49  66 VRB3      30.13S
OKLAHOMA CITY  MOCLDY    53  45  74 S9        30.08S

......IOWA............

CITY           SKY/WX    TMP DP  RH WIND       PRES   REMARKS
DES MOINES     CLEAR     54  41  61 E10       30.08R
QUAD CITIES    CLEAR     49  43  80 CALM      30.08R

......ILLINOIS........

CITY           SKY/WX    TMP DP  RH WIND       PRES   REMARKS
QUINCY         CLEAR     51  45  79 S8        30.09R
CHICAGO        PTCLDY    54  46  74 W7        30.06R




USA.gov is the U.S. government's official web portal to all federal, state and local government web resources and services.